Location: Newark
(42.7133°N, 87.7910°W)
Time: 01:15:12
(UTC+00:00)

Vanguard 1 - Pass Details

Date: 21 October 2019
Orbit: 652 x 3831 km, 34.2° (Epoch: 11 November)

Event Time Altitude Azimuth Distance (km) Brightness Sun altitude
Rises 05:36:22 0° 276° (W) 5,553 14.0 -57.9°
Enters shadow 05:38:16 - 273° (W) 5,174 13.7 -57.9°
Exits shadow 06:17:18 - 140° (SE) 7,454 14.3 -56.7°
Sets 06:20:07 0° 138° (SE) 7,931 14.5 -56.5°
